GFSSW_700_rhum_159.txt.gz
RH
76 76 71 69 68 67 63 60 57 53 51 50 50 49 47 45 43 38 35 34 34 33 32 31 27 23 21 18 15 14 17 17 20 29 31 34 33 32 32 32 31 30 29 26 18
83 83 80 75 74 72 69 68 66 62 59 55 54 55 53 51 47 46 44 39 36 33 30 29 28 26 23 20 17 16 18 17 21 25 29 30 31 32 32 30 23 18 18 20 18
78 82 84 80 80 75 75 72 68 65 62 58 57 56 55 54 54 51 48 43 38 36 42 37 28 22 18 17 18 20 21 22 26 29 30 25 23 22 23 25 24 25 19 14 11
82 80 80 80 80 77 72 70 70 66 64 63 58 56 55 55 56 55 55 55 53 52 49 46 42 38 33 24 18 21 22 23 26 26 27 25 23 23 24 23 22 20 18 16 12
74 74 72 69 68 67 64 64 61 61 55 54 56 52 52 47 55 52 52 60 57 54 53 51 47 43 39 36 27 22 21 23 23 25 27 25 22 20 20 19 18 16 13 10 10
75 75 73 70 69 66 65 62 62 64 57 54 55 54 51 46 57 55 57 63 61 59 57 55 50 45 42 38 34 28 23 18 19 20 21 20 20 20 19 18 15 13 10 8 8
51 49 50 44 43 42 45 47 47 50 47 43 58 49 44 45 57 57 62 62 67 63 61 60 54 50 44 40 37 32 26 21 19 18 18 18 19 18 16 15 15 13 12 8 7
31 32 30 30 26 24 23 24 23 22 23 25 28 27 28 42 50 38 31 54 60 64 71 68 62 58 50 45 43 36 28 25 26 21 18 17 18 17 17 16 14 14 11 10 8
19 18 17 16 15 15 14 14 13 12 12 12 12 12 9 13 33 35 32 55 57 55 66 76 69 55 48 48 46 43 32 33 28 22 22 20 20 22 24 17 16 16 13 11 10
18 17 17 17 17 16 16 15 14 14 13 12 12 11 9 10 19 31 42 51 64 59 68 72 55 46 44 48 46 46 36 34 32 27 24 24 26 22 20 16 13 14 13 11 10
20 22 14 13 12 11 11 10 10 10 10 11 12 11 12 13 15 16 39 53 58 59 59 56 50 41 42 45 46 36 35 35 38 30 25 29 25 18 15 16 15 12 13 12 12
10 9 9 8 8 7 7 7 7 7 7 8 8 8 8 10 13 35 37 40 43 54 57 59 56 49 44 45 44 40 38 35 36 34 29 28 25 21 17 14 16 13 12 13 13
10 6 5 5 5 4 4 4 4 5 5 6 6 6 6 7 7 8 18 29 48 50 56 62 61 53 54 50 45 50 42 41 38 36 30 28 28 22 18 17 15 14 14 15 16
4 4 4 4 5 4 4 4 3 3 5 6 7 11 11 9 8 7 7 13 42 41 43 50 57 58 58 62 60 62 47 40 39 34 27 24 22 23 18 16 16 15 14 14 15
6 6 6 6 6 6 6 5 4 3 32 9 14 14 17 18 17 21 17 11 11 25 46 37 50 52 53 48 54 56 58 48 36 32 30 28 25 24 24 23 22 16 15 15 15
8 9 9 9 8 7 8 7 5 9 22 6 22 24 25 22 21 24 26 24 26 28 44 55 59 60 52 46 44 38 37 43 41 30 26 28 24 24 26 25 24 23 21 20 18
16 34 19 10 10 8 10 9 18 11 9 16 18 32 28 28 29 41 40 41 44 58 59 45 51 75 66 57 48 44 34 31 28 27 29 26 24 24 27 24 22 21 21 21 21
26 36 27 24 11 11 12 43 31 14 15 26 39 53 58 52 41 52 84 72 69 77 77 68 63 59 60 58 57 61 52 35 44 34 28 28 24 23 25 22 21 21 21 21 20
42 24 35 21 16 16 35 98 42 29 23 16 13 19 51 50 65 68 66 62 62 76 83 73 64 61 58 55 54 55 50 47 36 38 39 32 27 25 24 23 25 26 26 25 22
53 40 21 29 26 27 96 70 48 30 33 38 24 23 22 22 47 55 58 61 64 68 67 69 71 62 65 61 54 48 48 44 48 87 74 40 34 29 28 28 27 27 28 33 34
97 77 36 53 73 71 62 44 30 32 31 51 49 43 46 53 38 30 38 31 44 49 52 72 79 70 64 55 53 50 47 46 41 38 47 49 37 34 31 27 30 36 36 36 44
94 99 73 88 92 89 68 36 26 24 47 61 59 61 49 51 51 65 61 69 62 67 66 76 81 87 81 74 71 58 47 39 43 43 37 38 39 43 41 37 40 39 42 45 54
96 99 84 87 100 90 69 75 58 52 65 72 67 68 59 57 54 42 23 24 27 32 44 64 77 89 58 59 85 84 76 73 52 53 48 56 55 48 41 38 39 39 46 55 62
97 97 97 100 85 78 62 58 94 62 60 70 56 56 63 70 59 54 57 64 54 71 69 79 68 78 79 78 78 79 73 66 67 76 71 60 47 43 41 42 40 40 53 57 64
98 94 87 90 82 85 81 71 60 56 54 76 63 64 89 88 56 41 59 53 46 48 38 45 53 50 44 42 47 52 74 67 74 60 55 55 56 47 48 45 44 52 73 69 69
97 97 89 98 91 79 94 78 68 48 70 92 67 81 82 64 57 68 75 88 80 70 66 87 85 87 56 46 73 60 54 48 49 49 66 58 58 49 52 52 60 72 72 81 78
96 94 89 92 97 93 72 82 96 81 97 89 94 97 76 76 95 83 89 84 82 87 64 68 98 97 81 78 84 89 32 46 55 64 66 56 50 47 54 58 60 63 69 71 88

GFSSW_700_rhum_165.txt.gz
RH
70 70 66 68 70 67 66 64 62 62 59 58 56 52 51 50 49 46 44 43 37 32 29 28 29 28 28 23 24 23 21 17 15 17 19 22 22 23 24 23 26 27 38 36 29
73 76 75 76 75 74 73 71 72 69 64 64 61 58 55 53 52 51 45 48 46 40 37 32 28 26 19 21 22 23 19 17 22 22 22 23 20 21 23 24 28 28 28 30 30
78 76 77 74 70 68 65 68 71 70 65 64 64 61 60 57 54 63 55 50 48 44 40 36 36 36 30 23 22 20 20 20 22 24 23 17 19 20 22 22 27 29 30 31 26
77 73 70 70 70 68 62 66 68 69 63 60 62 59 56 54 57 66 56 53 49 47 47 48 47 38 34 30 25 24 24 22 21 22 21 19 16 19 19 21 23 33 22 23 24
77 73 69 71 75 71 69 64 64 62 61 58 57 53 51 51 49 55 49 45 47 48 48 54 51 41 37 34 28 27 28 24 22 21 20 21 19 16 16 20 21 24 24 24 22
80 78 72 69 70 70 68 66 65 63 59 56 54 54 51 45 53 44 43 47 44 46 55 55 45 41 48 37 32 29 25 25 24 23 22 21 21 21 19 19 21 22 24 22 19
78 81 74 66 61 64 64 62 60 53 47 42 38 36 33 31 30 24 22 23 34 47 58 58 59 61 43 37 34 35 32 30 26 24 22 20 20 20 20 22 22 23 22 19 17
79 77 73 72 69 67 61 49 45 45 39 31 27 23 22 18 15 13 10 10 33 45 41 45 56 59 56 48 43 38 34 29 26 25 22 21 21 21 19 20 20 20 20 17 16
58 60 54 50 48 46 40 33 22 20 20 18 16 14 14 16 13 11 8 14 16 22 37 37 56 58 50 44 44 36 31 25 25 24 24 22 22 22 23 26 27 20 17 17 18
63 38 32 34 38 26 31 34 28 16 15 14 15 16 20 18 22 12 11 22 23 54 58 48 54 51 46 47 35 26 26 26 25 24 24 24 23 23 25 28 26 32 39 26 20
57 49 45 34 41 37 24 21 27 31 28 28 36 18 16 14 10 13 14 12 23 35 64 61 46 40 34 39 34 31 31 29 26 26 28 27 26 25 24 27 31 30 43 47 28
53 50 46 41 45 45 34 16 15 16 20 18 17 10 10 13 10 17 37 22 36 34 41 46 39 31 37 41 38 36 36 31 28 26 28 29 29 29 27 26 29 32 35 45 44
36 40 29 20 17 25 15 12 8 6 6 21 17 13 8 8 7 7 26 54 35 38 34 37 35 33 36 39 41 42 40 37 35 34 35 33 30 28 24 28 26 33 32 38 52
14 15 16 13 12 8 9 10 7 4 17 26 29 24 20 8 18 9 7 31 51 42 33 30 34 31 38 39 38 35 35 39 39 42 36 29 24 21 19 25 26 32 35 36 50
7 7 6 6 6 6 7 7 6 5 41 29 51 20 22 26 60 80 18 39 38 52 51 36 32 35 33 33 32 29 31 38 41 36 33 28 27 24 20 22 25 23 29 39 53
8 6 6 6 5 6 6 7 7 13 34 21 44 61 39 23 33 57 40 38 52 51 51 46 39 39 35 35 38 40 43 40 37 33 32 27 26 21 20 22 25 31 40 41 55
12 7 7 7 10 8 9 9 51 64 21 18 27 55 52 59 66 68 65 36 67 67 56 39 35 41 44 40 40 41 37 30 28 31 27 20 17 16 24 24 26 30 38 38 38
26 13 11 12 11 12 13 31 76 20 22 32 40 40 40 59 47 46 59 55 73 70 65 50 40 43 44 43 38 39 36 33 33 28 22 20 22 20 23 24 24 24 37 46 32
93 79 42 19 15 16 29 92 56 35 24 21 27 30 31 32 42 46 46 46 47 96 67 39 33 48 62 51 52 50 45 42 42 41 43 36 31 25 29 27 27 26 26 35 24
93 96 86 96 98 35 41 61 54 44 37 35 25 30 29 27 26 27 30 38 59 86 71 62 56 67 74 60 58 56 55 73 85 72 61 34 29 26 31 37 43 26 28 30 30
96 98 81 79 96 90 74 76 52 56 55 58 45 38 33 32 31 30 28 35 73 91 76 68 75 46 48 50 42 53 52 50 53 83 48 43 30 33 42 45 52 52 30 37 38
97 96 89 82 100 82 82 50 72 55 59 69 70 66 46 39 41 45 47 40 85 68 52 60 72 46 40 48 40 48 66 62 56 59 58 48 42 35 46 48 51 55 37 38 37
96 94 88 97 98 90 81 91 84 68 62 62 65 62 58 48 45 61 49 68 80 86 72 70 51 41 34 31 30 42 62 53 43 52 83 59 58 40 47 53 58 56 50 41 40
97 99 96 99 76 99 91 84 75 74 72 77 60 63 60 55 51 56 57 53 69 64 38 40 44 47 52 43 43 78 85 95 92 90 60 60 58 51 50 49 64 70 66 49 45
98 96 88 93 97 96 97 88 81 75 84 78 79 78 68 57 55 57 57 54 74 61 52 52 49 39 34 32 33 34 36 51 76 83 79 62 59 50 43 44 47 51 86 67 53
96 96 88 97 98 93 96 87 69 69 83 87 88 77 74 59 61 60 56 53 46 49 62 61 65 47 41 35 32 29 26 25 26 24 27 30 28 27 29 27 35 44 70 89 63
96 95 88 84 99 100 93 89 79 66 64 94 96 95 90 92 86 93 79 82 95 71 79 72 75 64 56 48 48 60 38 34 37 42 40 36 28 29 32 51 58 63 73 86 100

GFSSW_700_rhum_168.txt.gz
RH
72 67 66 66 67 65 61 64 64 63 60 58 58 57 55 50 51 50 54 45 45 40 36 30 25 19 19 21 21 24 23 20 16 18 15 19 21 21 21 23 29 36 39 46 36
73 71 70 71 68 69 68 68 64 66 67 64 60 60 58 54 53 52 52 46 46 43 41 36 32 28 30 21 19 20 20 18 18 21 21 22 21 20 20 22 24 27 26 26 28
79 77 76 73 72 69 67 61 56 57 58 61 60 58 58 55 53 54 50 51 48 45 44 41 38 36 35 30 22 20 19 18 18 19 22 22 18 19 19 21 22 22 23 27 29
81 77 74 73 70 68 65 60 56 57 53 54 56 54 51 53 56 63 58 54 49 45 43 42 42 40 39 36 30 26 23 22 22 20 20 19 19 16 18 19 22 25 23 28 31
72 78 75 71 68 66 66 64 60 58 56 52 54 54 50 49 44 51 41 44 44 44 41 40 41 45 41 35 33 30 27 26 26 23 21 21 21 18 17 18 19 35 26 27 26
70 68 68 72 70 66 63 60 56 57 58 55 58 56 51 43 41 45 41 37 29 33 38 42 45 43 37 37 40 34 31 28 24 23 23 22 21 21 18 17 19 26 23 23 23
78 74 74 74 70 68 63 61 59 58 57 58 56 50 45 37 30 25 23 23 21 17 21 39 57 43 43 47 40 34 31 30 31 29 27 24 22 21 21 20 20 19 19 22 23
73 71 70 70 70 68 66 64 62 60 59 56 50 43 40 34 26 22 16 13 12 9 10 32 44 43 43 52 48 44 40 36 30 28 26 23 22 21 20 21 22 24 23 25 25
81 76 74 72 65 66 64 60 57 55 51 42 42 24 35 31 29 26 25 14 10 12 12 17 29 38 36 52 46 37 39 32 29 24 24 23 22 20 22 21 21 24 22 23 34
68 67 75 75 72 54 38 36 36 32 27 35 40 28 31 28 23 40 24 12 12 34 56 36 44 46 50 49 43 35 27 26 26 24 23 23 23 22 21 24 23 29 28 37 42
50 45 44 45 57 49 46 46 45 50 44 38 49 41 36 44 40 23 17 21 14 29 52 64 55 41 36 39 37 34 33 30 28 26 24 24 25 23 22 25 25 25 28 34 38
27 29 38 42 45 47 45 43 37 40 40 35 35 32 35 33 29 36 30 47 42 41 37 40 49 47 36 32 32 36 33 31 31 30 26 24 24 27 26 25 24 26 28 29 40
22 22 22 29 38 37 29 17 26 18 14 22 27 26 25 28 28 28 21 33 45 37 31 30 30 34 37 32 26 34 36 35 35 33 33 32 31 30 27 23 26 26 27 30 34
14 14 16 17 18 21 15 16 10 9 9 29 30 35 30 35 35 37 24 27 31 40 41 29 31 28 32 31 32 32 32 33 33 34 34 32 32 29 24 23 23 23 28 28 33
10 10 10 10 8 8 14 10 7 7 48 27 42 50 55 32 47 59 46 36 36 31 35 39 34 30 29 30 29 34 33 30 29 31 34 35 29 23 22 23 22 21 27 27 32
17 16 7 6 6 6 6 6 7 22 58 23 35 43 31 14 27 59 54 35 45 42 33 39 46 43 35 32 33 32 31 31 32 36 39 33 27 24 21 19 20 23 27 31 36
12 11 9 9 9 7 7 9 21 50 24 21 22 32 54 52 58 28 62 50 43 52 47 30 42 46 44 38 36 38 42 42 37 40 36 26 24 23 19 21 25 25 27 31 42
56 31 22 11 14 13 12 25 83 31 29 24 31 37 38 54 44 45 56 55 66 61 49 48 44 38 24 38 40 36 37 38 42 37 28 23 24 22 25 25 24 26 32 34 36
92 62 49 34 21 18 31 72 56 39 32 24 22 21 26 30 28 31 59 57 55 79 87 58 36 30 46 46 38 40 37 36 37 39 44 34 29 29 30 33 36 28 31 43 40
96 98 83 67 71 68 47 70 47 36 33 32 32 33 24 22 28 30 31 32 32 56 84 74 87 50 52 57 56 46 43 49 83 88 64 40 33 30 38 42 47 44 49 57 50
96 100 60 74 86 98 96 40 27 31 42 40 56 53 37 30 27 28 31 33 37 52 52 71 79 61 56 69 69 61 57 79 88 93 88 64 40 41 44 56 52 54 51 43 44
100 98 50 70 98 93 95 72 55 62 59 53 51 64 78 58 55 51 43 43 61 68 64 68 81 94 56 59 57 61 77 70 79 63 68 54 46 36 47 52 68 66 74 40 38
99 97 92 83 99 88 67 87 84 86 71 64 66 68 66 59 52 50 46 81 79 78 86 82 65 53 42 43 38 41 58 87 94 96 94 84 64 48 57 62 73 83 91 90 53
98 98 97 96 92 94 83 93 86 79 75 66 57 60 49 56 60 55 51 65 80 88 63 69 56 50 50 42 44 50 55 53 69 88 93 80 64 53 56 74 84 74 79 79 95
97 87 92 97 94 78 97 92 89 80 70 81 58 77 65 58 64 49 51 50 83 79 68 60 50 42 38 35 32 32 35 34 34 50 76 73 84 62 55 46 40 32 38 61 85
98 97 85 74 75 90 82 83 92 93 89 88 85 75 70 70 55 52 58 55 72 67 71 62 55 53 46 38 34 31 30 29 28 29 28 35 32 26 26 28 27 30 32 66 84
66 78 96 66 98 100 77 68 85 88 90 92 94 82 88 98 88 90 82 82 83 78 69 66 68 66 64 53 46 47 41 40 37 38 34 35 32 33 39 35 38 37 57 73 98

GFSSW_700_rhum_171.txt.gz
RH
68 65 68 63 64 64 65 65 65 64 58 54 53 52 51 46 47 52 45 42 40 42 42 37 35 26 17 18 20 21 22 23 16 20 22 22 21 21 20 22 24 24 27 30 34
68 65 66 66 67 69 63 65 62 61 56 50 46 49 54 52 50 48 47 45 42 46 43 41 36 32 28 19 23 22 21 20 20 20 19 22 21 21 21 20 22 28 30 35 35
72 69 72 71 66 64 68 66 63 59 54 52 46 41 42 45 46 46 48 48 48 48 44 43 41 39 35 30 24 28 22 20 20 20 22 20 21 19 18 20 20 22 21 26 32
73 72 67 70 69 69 66 65 63 61 54 50 50 42 41 43 46 47 49 49 51 48 43 43 41 40 38 37 32 37 32 31 25 21 25 22 20 19 16 18 19 20 22 22 22
71 68 63 60 58 61 62 58 57 55 53 47 42 42 37 41 31 40 39 36 36 39 37 35 39 40 38 41 38 35 34 31 27 25 26 24 24 21 17 18 19 19 23 22 25
70 69 64 64 61 56 59 56 58 56 50 48 48 41 42 26 35 36 33 31 29 30 30 20 29 44 47 39 37 34 34 31 29 29 27 23 23 23 22 20 18 17 17 18 26
77 78 77 73 68 62 60 62 61 61 58 57 52 52 47 30 38 41 35 28 23 20 18 18 16 49 46 36 35 44 39 36 31 30 30 29 27 24 23 21 21 19 19 18 21
80 77 78 76 73 67 62 62 62 61 60 60 52 54 41 39 39 38 34 29 25 22 16 11 10 35 47 42 35 46 45 43 27 30 27 30 30 26 23 21 21 22 21 20 20
78 81 79 75 73 73 64 68 67 63 62 57 51 48 40 35 35 31 29 29 26 16 12 10 15 31 42 38 36 41 51 37 30 30 30 27 28 27 23 22 22 23 23 22 21
84 83 80 74 68 63 58 56 57 56 49 50 48 41 35 35 35 31 30 30 19 16 33 20 59 61 27 36 48 35 47 39 36 31 27 23 24 24 23 22 21 23 24 23 24
71 64 58 51 53 51 50 46 48 46 45 42 44 41 39 38 38 46 32 25 23 22 38 46 62 47 16 30 44 42 40 38 34 33 29 27 26 24 24 22 22 22 23 23 23
40 38 45 38 30 32 39 44 42 41 39 39 38 39 34 35 36 38 37 39 42 50 39 42 56 57 48 38 37 37 37 34 35 34 30 29 27 25 25 26 24 25 24 24 24
54 42 32 24 24 23 26 34 33 32 25 25 30 29 28 28 28 26 31 33 36 49 46 43 38 38 43 46 44 36 33 28 36 36 35 36 35 34 30 26 25 25 27 25 26
18 17 17 17 19 18 17 21 23 18 15 22 26 26 25 27 28 26 30 30 29 35 43 44 38 32 31 32 34 39 35 29 34 34 34 34 37 34 33 34 33 28 24 27 26
13 12 12 12 11 11 12 13 16 8 43 24 36 37 37 31 34 45 38 35 31 28 32 30 39 33 32 30 30 31 32 31 30 34 29 29 32 34 35 29 25 25 24 23 27
9 10 10 15 10 9 9 8 7 10 84 21 31 34 34 26 20 42 70 57 43 45 38 24 29 32 39 38 39 33 30 30 33 32 41 32 35 30 28 19 15 16 19 22 27
26 16 15 15 14 10 7 8 11 75 19 23 23 29 42 55 53 41 43 46 38 45 39 26 26 25 32 42 39 38 36 48 48 51 48 36 36 32 24 24 23 22 22 24 27
52 32 25 21 16 11 14 12 56 12 18 27 26 27 28 43 46 58 67 73 66 68 58 50 48 34 17 36 47 36 37 44 58 52 42 31 35 29 27 28 27 28 28 29 30
84 75 40 38 57 37 39 61 22 19 20 32 28 31 26 28 32 29 29 30 43 84 92 92 64 48 43 46 35 43 41 38 38 38 50 39 36 29 28 31 32 32 35 33 33
99 78 43 99 95 78 74 47 18 18 26 33 35 34 39 39 37 29 25 30 35 50 55 64 78 52 52 58 46 44 44 39 55 90 75 50 47 37 40 39 46 46 46 49 46
81 87 37 95 97 100 98 68 40 23 22 39 39 41 50 59 55 59 49 38 36 56 78 87 67 54 47 79 66 59 57 62 80 98 93 80 52 54 68 62 57 67 67 66 63
82 92 82 94 98 97 95 75 65 47 45 52 53 58 61 58 52 63 59 55 52 56 60 62 73 72 62 53 65 89 86 97 98 98 98 82 66 61 58 61 65 78 86 85 83
92 79 68 97 97 96 70 70 66 60 64 76 61 56 64 69 76 70 53 60 55 60 69 70 76 68 50 46 52 92 95 96 96 97 92 98 74 66 82 85 72 84 99 99 99
98 96 75 78 78 81 90 69 66 56 54 58 72 67 66 69 76 90 57 56 62 60 65 73 83 71 71 58 50 49 48 38 43 66 66 73 55 46 58 84 83 74 81 63 68
96 92 94 96 75 61 94 96 82 71 64 72 84 78 62 66 66 68 71 60 60 65 72 80 62 55 61 64 39 36 34 30 31 31 38 35 46 42 45 52 48 63 59 43 51
83 79 77 91 96 78 74 95 91 75 76 70 79 78 79 77 74 84 72 76 62 83 97 90 88 61 56 47 35 41 38 24 31 31 31 30 31 33 34 33 29 26 30 31 49
57 76 91 93 91 97 70 66 62 58 76 72 69 90 94 89 80 69 74 90 84 82 81 94 95 91 84 64 66 63 44 43 37 42 42 43 36 32 34 38 43 45 42 35 54

GFSSW_700_rhum_174.txt.gz
RH
65 61 60 62 61 59 56 54 52 53 52 50 45 42 41 42 46 48 43 40 39 38 37 36 37 33 28 21 22 22 22 21 20 21 21 21 22 21 21 24 24 25 24 26 26
66 65 63 60 59 59 58 56 53 57 55 49 46 41 38 33 32 35 41 41 42 43 42 38 39 37 31 24 20 25 24 19 19 19 20 22 22 22 21 22 25 26 26 25 28
69 65 63 63 64 64 58 54 55 54 54 53 48 45 42 36 30 30 35 46 47 48 46 42 41 38 36 33 24 29 28 28 28 24 24 22 22 21 18 20 20 20 21 28 27
68 64 63 61 59 59 56 55 53 54 53 49 47 42 36 32 35 37 37 39 36 38 38 39 40 40 40 35 35 34 25 35 30 31 27 24 23 22 20 19 18 19 20 20 19
72 69 67 65 59 56 53 48 47 45 45 44 39 38 31 28 27 32 31 31 33 35 34 35 35 34 33 34 34 34 31 29 32 32 26 27 25 24 21 21 19 18 20 20 20
71 69 66 62 61 58 57 57 54 54 55 54 48 41 43 33 37 33 33 35 36 32 26 24 27 23 22 22 28 29 32 31 31 32 30 29 26 24 23 24 22 20 18 21 21
71 69 69 68 68 64 64 62 58 58 55 56 55 50 40 35 42 39 39 37 38 33 25 20 18 20 22 21 24 28 32 31 26 28 32 30 29 27 25 24 24 22 21 20 18
76 72 72 72 73 66 65 66 61 61 56 59 54 54 36 37 36 37 38 36 38 34 28 23 15 14 19 24 23 39 40 43 21 30 31 34 35 25 26 27 24 23 21 21 21
76 73 73 73 74 66 66 68 62 58 58 55 54 52 39 33 34 36 35 33 31 29 28 20 19 18 22 20 42 40 41 34 24 28 33 33 33 29 26 27 26 23 22 22 22
73 73 71 77 81 76 70 66 60 57 54 50 49 47 40 34 33 33 33 32 31 32 24 21 43 46 23 43 58 26 37 27 30 27 38 36 30 26 24 28 24 23 22 22 24
71 74 74 80 72 64 57 50 50 50 49 47 46 44 42 41 40 37 37 36 34 37 23 30 53 49 24 24 36 39 41 45 40 37 40 37 34 28 26 26 23 22 21 23 24
72 71 72 61 48 42 46 39 41 44 42 43 42 40 36 35 37 36 36 40 40 37 33 43 57 55 59 41 48 51 42 41 40 37 34 36 36 32 29 28 24 25 24 23 25
48 53 61 65 63 53 32 29 31 26 30 34 34 32 29 29 28 27 32 40 44 40 44 48 47 44 42 31 47 55 60 52 46 36 32 34 36 35 31 34 27 26 26 26 25
22 21 20 24 27 28 26 23 21 19 23 23 23 24 24 24 23 22 23 27 34 38 39 43 48 46 40 43 43 50 44 42 37 44 34 34 37 34 33 32 33 33 29 30 27
40 17 14 14 14 14 14 13 15 18 35 24 38 36 30 28 31 30 30 32 28 27 31 30 35 41 43 41 36 37 39 34 33 37 32 32 34 32 32 31 30 29 33 33 28
37 23 10 10 10 10 10 10 12 10 67 21 35 38 37 30 27 32 44 46 38 35 35 35 29 30 36 40 38 42 46 40 34 33 41 34 34 33 32 30 24 18 18 17 16
27 28 29 15 16 14 15 9 16 33 22 21 27 46 46 40 51 55 40 46 60 54 48 36 36 29 30 30 28 35 38 47 46 50 46 34 35 33 32 30 25 24 23 24 24
48 37 34 35 40 26 17 15 13 18 18 26 24 26 29 30 45 50 63 69 70 70 81 82 70 47 50 48 35 29 34 47 56 47 38 32 39 35 34 32 32 30 28 24 24
86 71 44 55 82 61 45 36 22 26 24 22 26 30 27 29 36 33 47 43 45 39 41 86 74 64 56 57 67 45 39 42 43 40 52 40 37 35 30 32 34 33 29 28 30
93 86 56 86 100 96 90 53 19 18 23 30 39 36 40 36 43 45 49 45 45 54 70 69 74 63 50 48 58 61 46 45 48 76 75 48 45 44 38 33 41 37 36 33 32
98 93 57 76 95 98 98 73 44 24 22 30 28 34 38 40 56 59 60 58 55 57 71 73 76 70 59 45 42 59 86 68 66 60 82 73 66 88 75 83 71 68 56 52 50
89 97 76 65 77 78 97 78 55 35 54 50 42 35 36 44 50 66 68 59 63 58 56 64 70 72 73 51 57 49 82 96 99 98 97 80 80 98 99 98 98 86 70 78 89
96 90 84 82 100 83 81 86 78 58 63 71 71 57 59 49 68 61 69 60 64 68 65 66 85 85 63 58 73 88 94 96 89 95 94 97 98 98 94 95 97 100 100 100 99
97 95 82 86 82 85 92 96 98 74 67 72 80 71 69 67 54 70 62 62 68 71 64 74 67 62 70 61 55 51 49 59 56 59 57 74 58 58 41 44 68 73 87 89 85
92 91 87 79 91 91 80 85 86 76 68 88 80 72 66 76 52 63 72 72 71 80 74 84 70 54 50 59 62 52 58 44 46 65 61 56 41 35 33 36 34 46 51 44 38
94 94 87 81 80 89 92 97 94 95 96 95 97 85 83 88 80 77 78 80 80 78 87 89 80 82 74 53 54 58 40 33 31 37 40 35 37 29 34 41 37 35 34 42 42
84 83 81 72 74 82 80 79 92 99 86 92 93 95 96 84 74 77 82 90 96 81 84 86 84 90 87 77 70 75 39 34 35 50 48 46 41 47 38 38 36 43 41 51 49